Miscellaneous Local Product
Issued by NWS North Platte, NE

Home | Current Version | Previous Version | Text Only | Print | Product List | Glossary On
Versions: 1 2 3 4 5 6 7 8 9 10 11 12 13 14 15 16 17 18 19 20 21 22 23 24 25 26 27 28 29 30 31 32 33 34 35 36 37 38 39 40 41 42 43 44 45 46 47 48 49 50
000
AXUS43 KLBF 050710
MISLBF


WESTERN AND NORTH CENTRAL NEBRASKA HOURLY WEATHER ROUNDUP
NATIONAL WEATHER SERVICE NORTH PLATTE NE
200 AM CDT TUE MAY 05 2015

***STATIONS NOT REPORTING VARIABLES SUCH AS SKY/WEATHER OR
PRESSURE ARE PROVIDED BY THE NEBRASKA DEPARTMENT OF
ROADS...RAWS...AND APRS NETWORKS...AND ARE NOT UNDER
NATIONAL WEATHER SERVICE QUALITY CONTROL***

...OBSERVATIONS IN AND NEAR THE EASTERN PANHANDLE OF NEBRASKA...

CITY           SKY/WX    TMP DP  RH WIND       PRES   REMARKS
PINE RIDGE     PTCLDY    38  31  76 E5        30.08F WCI  34
CHADRON        MOCLDY    42  38  85 E3        30.07F
ALLIANCE       CLOUDY    49  43  80 S6        30.08F
SIDNEY         CLOUDY    45  43  93 SE6       30.08F FOG
WHITECLAY        N/A     38  33  79 SE5         N/A  WCI  35
CRESCENT LAKE    N/A     49  40  70 SE6         N/A
BIG SPRINGS      N/A     48  47  95 CALM        N/A
$$

...OBSERVATIONS IN NORTH CENTRAL NEBRASKA...

CITY           SKY/WX    TMP DP  RH WIND       PRES   REMARKS
VALENTINE      PTCLDY    46  35  65 E6        30.09S
THEDFORD       CLOUDY    55  47  74 SE8       30.10R
AINSWORTH      CLOUDY    51  43  73 SE3       30.09F
O`NEILL        MOCLDY    52  48  84 CALM      30.10F
ORD            CLOUDY    54  52  93 SE5       30.08S FOG
BROKEN BOW     FOG       53  52  96 E5        30.08F VSB 3/4
BROWNLEE         N/A     54  42  65 E5          N/A
VALENTINE NWR    N/A     48  38  68 SE6         N/A
SPRINGVIEW       N/A     44  36  74 CALM        N/A
HALSEY           N/A     53  45  74 E3          N/A
BREWSTER         N/A     55  52  89 SE6         N/A
ROSE             N/A     55  52  90 E6          N/A
NEWPORT          N/A     50  46  87 CALM        N/A
SARGENT          N/A     53  51  93 CALM        N/A
COMSTOCK         N/A     55  55 100 E3          N/A
EWING            N/A     54  51  89 CALM        N/A
$$

...OBSERVATIONS IN SOUTHWEST NEBRASKA AND FAR NORTHEAST COLORADO...

CITY           SKY/WX    TMP DP  RH WIND       PRES   REMARKS
WRAY           CLOUDY   N/A N/A N/A NE6       30.07F
IMPERIAL       CLOUDY    49  47  93 NE3       30.07F FOG
OGALLALA       CLOUDY    49  48  98 E3        30.08F FOG
NORTH PLATTE   CLOUDY    51  50  96 SE3       30.09S
MCCOOK         CLOUDY    53  51  93 E7        30.08R FOG
LEXINGTON      FOG       54  53  97 E6        30.07F VSB 1/2
PAXTON           N/A     50  48  93 CALM        N/A
SUTHERLAND       N/A     46  44  93 E3          N/A
GOTHENBURG       N/A     52  50  92 E3          N/A
CALLAWAY         N/A     52  51  97 E3          N/A
$$

...NORTH PLATTE AREA...

CITY           SKY/WX    TMP DP  RH WIND       PRES   REMARKS
AIRPORT        CLOUDY    51  50  96 SE3       30.09S
DOWNTOWN         N/A     50  48  93 CALM        N/A
$$

...SOME WEATHER OBSERVATIONS FROM AROUND THE REGION...

CITY           SKY/WX    TMP DP  RH WIND       PRES   REMARKS
DENVER         CLOUDY    49  47  93 E7        30.06F FOG
LARAMIE        CLOUDY    43  42  97 S12       30.07F
CHEYENNE       FOG       44  42  93 SE6       30.08F VSB 3/4
SCOTTSBLUFF    CLOUDY    49  42  77 SE8       30.09F
RAPID CITY     MOCLDY    46  36  68 S6        30.07F
PIERRE         CLOUDY    55  29  36 E8        30.08F
WINNER         FAIR      50  34  54 SE6       30.09F
SIOUX FALLS    PTCLDY    47  31  53 NE6       30.14F
OMAHA          CLOUDY    60  57  89 N5        30.07S
GRAND ISLAND   FOG       55  54  96 E8        30.08F VSB 1/4
KANSAS CITY    CLOUDY    60  59  96 SW5       30.08F
WICHITA        MOCLDY    65  56  72 SE8       30.05F
HAYS           CLOUDY    59  54  82 SE5       30.05S
LIBERAL        CLOUDY    61  54  77 NE6       30.02S
GOODLAND       CLOUDY    50  48  93 E10       30.08R FOG
$$



USA.gov is the U.S. government's official web portal to all federal, state and local government web resources and services.